This demonstration page uses our WeatherBlox Daily Observations layout. Learn more.

Left ArrowRight Arrow

41.86663, -103.66717

Hourly Observations for November 2, 2020

Temp ( °F °C ) Dew Point ( °F °C ) Humidity (%) Winds ( mph kmh ) Pressure ( in mb ) Visibility ( mi km ) Precip ( " mm )
12:53 am 00:53 Clear 31 -0.6 26 -3.3 82 82 Calm 30.37 1028 9 14 0.00 0.00
1:53 am 01:53 Clear 32 0 27 -2.8 82 82 NW 3 6 30.35 1028 10 16 0.00 0.00
2:37 am 02:37 Clear with Mist and Fog 29 -1.7 26 -3.3 89 89 W 6 9 30.50 1033 3 4 0.00 0.00
2:44 am 02:44 Clear 28 -2 25 -4 86 86 NW 5 7 30.51 1033 9 14 0.00 0.00
2:53 am 02:53 Clear 28 -2.2 26 -3.3 92 92 NNW 7 11 30.36 1028 10 16 0.00 0.00
3:53 am 03:53 Clear 29 -1.7 25 -3.9 85 85 W 3 6 30.36 1028 10 16 0.00 0.00
4:53 am 04:53 Clear 28 -2.2 25 -3.9 88 88 NW 7 11 30.39 1029 10 16 0.00 0.00
5:53 am 05:53 Clear 29 -1.7 26 -3.3 89 89 NW 6 9 30.40 1030 10 16 0.00 0.00
6:53 am 06:53 Sunny 29 -1.7 26 -3.3 89 89 WNW 3 6 30.42 1030 10 16 0.00 0.00
7:53 am 07:53 Sunny 36 2.2 31 -0.6 82 82 W 5 7 30.41 1030 10 16 0.00 0.00
8:53 am 08:53 Sunny 45 7.2 34 1.1 66 66 W 6 9 30.38 1029 10 16 0.00 0.00
9:53 am 09:53 Sunny 53 11.7 35 1.7 51 51 NW 7 11 30.34 1028 10 16 0.00 0.00
10:53 am 10:53 Sunny 62 16.7 34 1.1 35 35 WNW 3 6 30.31 1027 10 16 0.00 0.00
11:53 am 11:53 Sunny 69 20.6 30 -1.1 23 23 VRB 5 7 30.26 1025 10 16 0.00 0.00
12:53 pm 12:53 Sunny 72 22.2 28 -2.2 19 19 WNW 8 13 30.22 1023 10 16 0.00 0.00
1:53 pm 13:53 Sunny 74 23.3 28 -2.2 18 18 NNW 5 7 30.18 1022 10 16 0.00 0.00
2:53 pm 14:53 Sunny 74 23.3 30 -1.1 20 20 WNW 5 7 30.17 1022 10 16 0.00 0.00
3:53 pm 15:53 Sunny 74 23.3 33 0.6 22 22 Calm 30.16 1021 10 16 0.00 0.00
4:53 pm 16:53 Clear 58 14.4 35 1.7 42 42 E 3 6 30.19 1023 10 16 0.00 0.00
5:53 pm 17:53 Clear 54 12.2 33 0.6 45 45 ESE 5 7 30.19 1022 10 16 0.00 0.00
6:53 pm 18:53 Clear 48 8.9 34 1.1 58 58 E 6 9 30.21 1023 10 16 0.00 0.00
7:53 pm 19:53 Clear 45 7.2 33 0.6 63 63 Calm 30.19 1022 10 16 0.00 0.00
8:53 pm 20:53 Clear 41 5 32 0 70 70 undefined N/A 30.17 1022 10 16 0.00 0.00
9:53 pm 21:53 Clear 45 7.2 31 -0.6 58 58 Calm 30.14 1021 10 16 0.00 0.00
10:53 pm 22:53 Clear 37 2.8 30 -1.1 76 76 undefined N/A 30.13 1020 10 16 0.00 0.00
11:53 pm 23:53 Clear 37 2.8 30 -1.1 76 76 undefined N/A 30.10 1019 10 16 0.00 0.00

Powered by AerisWeather